Probability
0 0 0 0 0 0 0 0 0 0 0 0 0 0 0 0 0 0 0 0 0 0 0 0 0 0 0 0 0 0 0 0 0 0 0 0 0 0 0 0 0 0 0 0
0 0 0 0 0 0 0 0 0 0 0 0 0 0 0 0 0 0 0 0 0 0 0 0 0 0 0 0 0 0 0 0 0 0 0 0 0 0 0 0 0 0 0 0
0 0 0 0 0 0 0 0 0 0 0 0 0 0 0 0 0 0 0 0 0 0 0 0 0 0 0 0 0 0 0 0 0 0 0 0 0 0 0 0 0 0 0 0
0 0 0 0 0 0 0 0 0 0 0 0 0 0 0 0 0 0 0 0 0 0 0 0 0 0 0 0 0 0 0 0 0 0 0 0 0 0 0 0 0 0 0 0
0 0 0 0 0 0 0 0 0 0 0 0 0 0 0 0 0 0 0 0 0 0 0 0 0 0 0 0 0 0 0 0 0 0 0 0 0 0 0 0 0 0 0 0
0 0 0 0 0 0 0 0 0 0 0 0 0 0 0 0 0 0 0 0 0 0 0 0 0 0 0 0 0 0 0 0 0 0 0 0 0 0 0 0 0 0 0 0
0 0 0 0 0 0 0 0 0 0 0 0 0 0 0 0 0 0 0 0 0 0 0 0 0 0 0 0 0 0 0 0 0 0 0 0 0 0 0 0 0 0 0 0
0 0 0 0 0 0 0 0 0 0 0 0 0 0 0 0 0 0 0 0 0 0 0 0 0 0 0 0 0 0 0 0 0 0 0 0 0 0 0 0 0 0 0 0
0 0 0 0 0 0 0 0 0 0 0 0 0 0 0 0 0 0 0 0 0 0 0 0 0 0 0 0 0 0 0 0 0 0 0 0 0 0 0 0 0 0 0 0
0 0 0 0 0 0 0 0 0 0 0 0 0 0 0 0 0 0 0 0 0 0 0 0 0 0 0 0 0 0 0 0 0 0 0 0 0 0 0 0 0 0 0 0
0 0 0 0 0 0 0 0 0 0 0 0 0 0 0 0 0 0 0 0 0 0 0 0 0 0 0 0 0 0 0 0 0 0 0 0 0 0 0 0 0 0 0 0
0 0 0 0 0 0 0 0 0 0 0 0 0 0 0 0 0 0 0 0 0 0 0 0 0 0 0 0 0 0 0 0 0 0 0 0 0 0 0 0 0 0 0 0
0 0 0 0 0 0 0 0 0 0 0 0 0 0 0 0 0 0 0 0 0 0 0 0 0 0 0 0 0 0 0 0 0 0 0 0 0 0 0 0 0 0 0 0
0 0 0 0 0 0 0 0 0 0 0 0 0 0 0 0 0 0 0 0 0 0 0 0 0 0 0 0 0 0 0 0 0 0 0 0 0 0 0 0 0 0 0 0
0 0 0 0 0 0 0 0 0 0 0 0 0 0 0 0 0 0 0 0 0 0 0 0 0 0 0 0 0 0 0 0 0 0 0 0 0 0 0 0 0 0 0 0
0 0 0 0 0 0 0 0 0 0 0 0 0 0 0 0 0 0 0 0 0 0 0 0 0 0 0 0 0 0 0 0 0 0 0 0 0 0 0 0 0 0 0 0
0 0 0 0 0 0 0 0 0 0 0 0 0 0 0 0 0 0 0 0 0 0 0 0 0 0 0 0 0 0 0 0 0 0 0 0 0 0 0 0 0 0 0 0
0 0 0 0 0 0 0 0 0 0 0 0 0 0 0 0 0 0 0 0 0 0 0 0 0 0 0 0 0 0 0 0 0 0 0 0 0 0 0 0 0 0 0 0
0 0 0 0 0 0 0 0 0 0 0 0 0 0 0 0 0 0 0 0 0 0 0 0 0 0 0 0 0 0 0 0 0 0 0 0 0 0 0 0 0 0 0 0
0 0 0 0 0 0 0 0 0 0 0 0 0 0 0 0 0 0 0 0 0 0 0 0 0 0 0 0 0 0 0 0 0 0 0 0 0 0 0 0 0 0 0 0
0 0 0 0 0 0 0 0 0 0 0 0 0 0 0 0 0 0 0 0 0 0 0 0 0 0 0 0 0 0 0 0 0 0 0 0 0 0 0 0 0 0 0 0
0 0 0 0 0 0 0 0 0 0 0 0 0 0 0 0 0 0 0 0 0 0 0 0 0 0 0 0 0 0 0 0 0 0 0 0 0 0 0 0 0 0 0 0
0 0 0 0 0 0 0 0 0 0 0 0 0 0 0 0 0 0 0 0 0 0 0 0 0 0 0 0 0 0 0 0 0 0 0 0 0 0 0 0 0 0 0 0
0 0 0 0 0 0 0 0 0 0 0 0 0 0 0 0 0 0 0 0 0 0 0 0 0 0 0 0 0 0 0 0 0 0 0 0 0 0 0 0 0 0 0 0
0 0 0 0 0 0 0 0 0 0 0 0 0 0 0 0 0 0 0 0 0 0 0 0 0 0 0 0 0 0 0 0 0 0 0 0 0 0 0 0 0 0 0 0
0 0 0 0 0 0 0 0 0 0 0 0 0 0 0 0 0 0 0 0 0 0 0 0 0 0 0 0 0 0 0 0 0 0 0 0 0 0 0 0 0 0 0 0
0 0 0 0 0 0 0 0 0 0 0 0 0 0 0 0 0 0 0 0 0 0 0 0 0 0 0 0 0 0 0 0 0 0 0 0 0 0 0 0 0 0 0 0
Height
5822 5820 5819 5819 5820 5818 5815 5814 5811 5810 5807 5805 5798 5793 5789 5782 5777 5771 5764 5757 5749 5741 5733 5723 5713 5703 5691 5678 5664 5650 5636 5620 5604 5588 5572 5555 5538 5520 5502 5484 5468 5452 5437 5422
5816 5813 5809 5810 5812 5810 5808 5806 5803 5800 5799 5798 5790 5787 5782 5776 5770 5764 5758 5751 5743 5734 5726 5717 5707 5697 5686 5673 5660 5646 5631 5616 5600 5584 5568 5552 5535 5518 5500 5483 5467 5451 5436 5421
5807 5805 5801 5803 5806 5803 5800 5799 5796 5792 5792 5787 5782 5779 5775 5769 5763 5757 5751 5743 5736 5727 5719 5710 5701 5691 5680 5668 5655 5641 5627 5612 5596 5581 5565 5549 5533 5516 5499 5482 5466 5451 5436 5421
5796 5796 5793 5800 5797 5794 5791 5790 5787 5784 5781 5777 5773 5770 5766 5760 5754 5748 5742 5736 5728 5720 5712 5703 5695 5685 5674 5662 5650 5637 5623 5608 5593 5577 5562 5546 5531 5514 5498 5481 5466 5451 5436 5422
5786 5783 5783 5789 5788 5784 5780 5780 5779 5774 5771 5768 5763 5760 5757 5751 5745 5740 5734 5728 5720 5713 5704 5696 5687 5678 5668 5657 5645 5632 5618 5604 5590 5574 5559 5544 5529 5513 5497 5480 5465 5450 5436 5422
5776 5773 5772 5779 5777 5772 5770 5770 5768 5763 5760 5757 5752 5749 5747 5742 5736 5730 5725 5719 5712 5705 5696 5688 5680 5671 5662 5651 5640 5627 5614 5601 5586 5572 5557 5542 5527 5511 5496 5480 5464 5449 5435 5421
5766 5761 5761 5768 5764 5760 5760 5759 5755 5751 5748 5744 5741 5737 5734 5729 5725 5719 5714 5709 5703 5695 5688 5680 5672 5663 5655 5645 5634 5622 5610 5597 5583 5569 5555 5540 5525 5510 5495 5480 5464 5450 5436 5422
5755 5752 5756 5757 5753 5750 5748 5746 5743 5739 5735 5732 5728 5725 5721 5717 5713 5708 5703 5698 5692 5685 5679 5671 5663 5656 5648 5638 5628 5617 5606 5593 5580 5567 5552 5538 5523 5509 5494 5480 5465 5450 5436 5423
5743 5744 5745 5743 5741 5739 5735 5733 5730 5726 5723 5719 5716 5712 5709 5705 5700 5695 5691 5686 5680 5675 5668 5662 5654 5647 5640 5632 5622 5612 5601 5589 5576 5563 5550 5536 5522 5508 5494 5480 5465 5451 5438 5425
5728 5732 5732 5730 5728 5726 5722 5718 5717 5714 5711 5707 5703 5700 5696 5692 5687 5682 5678 5673 5668 5663 5658 5652 5645 5639 5632 5624 5615 5606 5596 5585 5573 5560 5548 5535 5521 5507 5494 5480 5466 5452 5439 5427
5712 5716 5715 5716 5714 5710 5707 5705 5704 5702 5698 5694 5690 5686 5683 5678 5674 5669 5664 5660 5655 5651 5646 5642 5636 5629 5623 5616 5608 5600 5590 5580 5569 5557 5545 5533 5520 5507 5494 5481 5467 5454 5440 5428
5697 5700 5694 5696 5698 5695 5691 5689 5688 5685 5683 5680 5675 5671 5668 5664 5660 5656 5651 5647 5642 5638 5634 5630 5625 5619 5613 5607 5601 5593 5584 5574 5564 5553 5542 5530 5518 5505 5492 5480 5467 5453 5440 5428
5679 5679 5675 5676 5678 5677 5672 5670 5669 5668 5665 5662 5659 5654 5651 5648 5645 5641 5637 5633 5629 5625 5621 5618 5614 5609 5603 5597 5592 5585 5577 5568 5559 5549 5538 5527 5515 5503 5491 5479 5467 5453 5441 5429
5661 5658 5655 5658 5658 5658 5655 5652 5651 5650 5647 5644 5640 5637 5633 5631 5629 5625 5622 5618 5615 5612 5608 5604 5601 5597 5592 5586 5582 5576 5569 5562 5553 5544 5534 5524 5513 5501 5490 5478 5466 5454 5441 5430
5642 5640 5638 5640 5640 5640 5638 5635 5633 5632 5630 5627 5623 5620 5617 5614 5612 5609 5605 5602 5599 5597 5593 5590 5587 5584 5579 5575 5570 5566 5560 5554 5546 5538 5529 5520 5509 5499 5488 5476 5465 5453 5442 5430
5625 5624 5624 5624 5625 5624 5621 5618 5616 5615 5613 5610 5607 5604 5601 5598 5596 5592 5589 5585 5582 5580 5577 5574 5572 5570 5566 5562 5558 5555 5551 5545 5539 5531 5523 5515 5505 5496 5485 5475 5464 5453 5442 5431
5610 5610 5610 5610 5610 5608 5606 5603 5600 5598 5596 5593 5590 5587 5584 5581 5579 5576 5572 5569 5566 5564 5561 5559 5557 5554 5552 5548 5546 5543 5540 5536 5530 5524 5517 5509 5501 5492 5482 5472 5462 5452 5441 5431
5599 5599 5598 5597 5596 5594 5592 5589 5585 5582 5580 5577 5574 5571 5568 5565 5562 5559 5556 5553 5550 5548 5545 5543 5540 5538 5537 5535 5533 5531 5529 5525 5521 5516 5510 5503 5496 5487 5479 5469 5460 5451 5441 5431
5590 5589 5587 5585 5583 5580 5577 5574 5571 5568 5564 5561 5558 5555 5552 5549 5546 5543 5539 5536 5533 5531 5529 5526 5524 5523 5522 5521 5519 5518 5517 5515 5511 5507 5502 5497 5490 5482 5475 5466 5458 5449 5440 5430
5581 5579 5576 5573 5570 5566 5563 5559 5556 5552 5548 5544 5541 5538 5535 5531 5528 5525 5522 5520 5517 5514 5512 5510 5508 5508 5507 5506 5505 5505 5505 5503 5501 5498 5494 5489 5484 5477 5470 5462 5454 5446 5438 5429
5570 5566 5563 5560 5557 5553 5548 5544 5540 5536 5532 5526 5522 5518 5515 5512 5508 5505 5503 5502 5500 5496 5495 5493 5493 5492 5492 5491 5491 5492 5492 5492 5490 5488 5485 5482 5477 5471 5464 5458 5451 5443 5436 5428
5556 5553 5549 5545 5542 5538 5533 5528 5522 5517 5513 5507 5502 5497 5493 5490 5487 5484 5482 5480 5479 5477 5477 5476 5476 5476 5476 5476 5477 5480 5480 5480 5480 5479 5477 5474 5469 5464 5459 5453 5447 5440 5433 5426
5541 5537 5533 5529 5524 5520 5516 5509 5503 5497 5491 5486 5480 5474 5470 5467 5464 5461 5461 5460 5457 5458 5458 5459 5459 5460 5460 5462 5464 5467 5468 5469 5469 5469 5468 5465 5462 5458 5453 5448 5442 5436 5430 5423
5525 5521 5516 5511 5506 5501 5496 5490 5483 5476 5470 5464 5458 5451 5446 5443 5441 5439 5437 5438 5437 5438 5440 5441 5442 5443 5445 5448 5451 5454 5456 5458 5459 5459 5459 5457 5454 5451 5447 5442 5437 5432 5427 5420
5509 5504 5499 5494 5488 5482 5476 5470 5464 5456 5448 5441 5435 5428 5422 5419 5418 5417 5415 5415 5416 5417 5420 5423 5425 5428 5431 5435 5439 5442 5445 5447 5449 5450 5450 5449 5446 5444 5440 5436 5432 5428 5423 5417
5492 5488 5483 5476 5470 5463 5456 5449 5441 5434 5424 5416 5411 5405 5400 5397 5395 5395 5394 5395 5396 5398 5402 5406 5409 5413 5417 5422 5426 5430 5434 5436 5439 5441 5441 5440 5439 5436 5434 5430 5427 5423 5419 5414
5476 5472 5466 5461 5454 5446 5438 5430 5421 5412 5402 5393 5388 5385 5381 5378 5377 5376 5377 5377 5378 5381 5385 5390 5394 5399 5404 5410 5414 5419 5423 5427 5429 5432 5433 5432 5431 5429 5427 5425 5422 5419 5415 5411
Wind_Speed
29 31 33 33 33 34 35 34 35 33 33 31 35 37 39 42 44 46 49 51 54 56 57 58 60 62 65 68 70 73 76 79 80 79 77 77 79 80 79 75 69 65 64 64
31 33 37 36 33 35 36 36 36 37 36 34 39 39 41 44 46 48 50 52 54 56 58 59 60 61 64 67 69 72 74 77 80 79 77 77 78 79 78 74 69 64 63 62
34 35 39 37 33 35 38 37 38 40 39 40 42 43 43 46 48 49 51 52 55 57 59 59 59 61 63 66 68 71 73 76 79 79 77 76 77 78 78 75 69 64 62 61
39 38 41 35 34 36 39 40 40 42 42 44 46 46 46 48 50 51 52 53 56 58 59 59 59 60 62 65 68 70 72 74 77 79 77 76 75 76 77 75 69 64 60 59
41 42 43 36 34 37 41 42 42 44 45 47 49 49 48 50 51 53 53 55 56 58 59 59 59 59 61 63 67 69 71 73 75 77 77 75 74 75 76 74 70 64 60 58
44 46 47 40 37 39 41 42 42 46 47 49 50 51 51 52 53 54 55 55 57 58 59 59 58 58 59 62 65 68 70 71 73 76 76 75 73 73 74 74 70 64 59 57
45 48 49 42 40 41 41 41 44 46 48 50 52 54 54 54 55 56 56 56 57 58 58 57 57 57 58 61 64 67 69 70 71 73 75 74 72 72 72 73 70 64 59 56
47 50 48 42 42 40 40 41 43 47 49 52 53 54 55 56 56 57 57 56 56 56 56 56 56 56 57 60 63 66 68 68 69 71 73 73 71 70 71 71 69 64 59 55
53 52 48 46 44 41 41 43 45 48 51 53 55 55 56 56 57 57 57 56 55 55 54 55 56 56 57 59 62 65 66 67 67 69 71 71 70 68 68 69 68 65 59 54
58 55 52 50 47 45 45 48 49 51 52 54 56 56 56 57 58 58 58 58 57 55 55 55 55 56 57 59 61 64 65 66 66 66 68 69 68 66 66 67 67 65 60 54
63 59 57 54 53 53 54 53 53 54 55 56 58 58 58 58 59 59 60 60 59 58 57 56 56 57 57 59 61 63 64 64 64 64 66 67 66 65 64 65 67 65 61 55
66 63 65 62 58 58 59 59 58 59 59 59 60 61 61 61 61 62 62 62 63 62 61 59 58 58 59 59 61 62 63 63 63 62 63 65 65 63 62 63 65 65 61 55
66 65 67 65 63 62 62 62 61 61 61 62 62 63 63 63 63 64 65 65 65 65 64 63 61 60 60 60 60 61 62 62 61 60 60 62 62 61 60 60 63 64 61 55
63 65 67 65 63 62 63 63 63 62 62 63 63 63 64 65 64 65 66 66 66 66 66 65 63 61 61 62 61 61 61 61 60 57 57 59 60 59 58 58 59 61 60 55
57 59 60 59 59 59 59 59 60 59 59 60 61 61 61 61 61 62 63 64 64 64 65 65 64 63 62 62 61 60 60 60 58 55 54 56 57 57 55 55 56 58 58 55
53 54 54 54 54 54 54 55 55 55 56 57 57 57 57 57 57 57 59 61 61 61 62 63 63 63 62 62 61 59 59 58 56 53 51 52 54 54 53 52 53 55 55 53
47 48 49 49 49 49 50 50 51 51 51 51 51 52 53 53 53 54 55 56 57 58 59 60 60 61 61 61 60 59 57 55 53 50 48 49 51 51 50 49 50 52 53 52
39 41 42 42 43 44 46 46 47 48 48 48 48 48 49 50 50 51 52 53 53 54 56 57 58 59 58 59 58 57 54 52 50 47 45 46 48 48 47 46 47 49 50 51
34 35 37 40 42 44 46 48 49 49 50 51 51 51 51 52 52 51 51 51 52 52 53 55 56 56 56 56 56 55 52 50 47 45 42 43 45 45 44 43 44 45 47 48
36 38 39 41 43 45 47 48 50 51 53 54 55 56 56 56 56 55 54 54 53 53 53 53 54 55 55 55 55 53 51 48 45 42 39 39 41 42 41 40 41 42 44 46
43 44 46 47 48 49 51 53 55 56 58 60 62 62 62 61 60 60 59 57 55 54 53 52 52 53 53 53 53 52 49 46 42 39 36 37 38 39 38 38 38 39 41 43
48 50 50 51 52 54 57 60 62 64 65 67 68 69 68 67 66 65 63 61 58 56 53 51 50 51 51 51 50 49 47 44 41 37 34 34 36 36 35 35 35 36 38 41
52 53 54 56 59 61 62 65 67 68 69 70 70 70 70 69 68 66 64 61 59 56 53 51 49 48 49 49 48 46 44 42 38 35 31 32 33 33 32 32 32 33 35 38
54 55 57 59 62 63 65 66 67 68 69 70 71 71 71 69 67 66 64 62 59 55 52 49 47 46 46 46 45 43 41 39 36 32 29 30 31 31 30 29 30 31 33 35
55 56 58 60 62 64 66 68 68 70 71 72 72 70 69 68 67 65 63 60 57 53 50 47 45 45 44 42 41 39 37 35 33 30 27 28 28 28 27 27 27 28 30 33
55 56 58 60 63 65 67 68 69 70 70 69 67 65 64 63 62 59 56 54 51 48 46 44 42 41 41 39 37 36 34 33 31 27 26 26 26 26 25 25 25 26 28 31
54 56 57 58 59 60 60 61 63 63 62 60 57 54 54 54 51 47 44 42 40 39 39 38 38 38 37 35 33 33 32 30 28 25 24 24 24 24 23 23 24 25 26 29
Wind_Direction
270 269 266 261 259 263 269 276 282 289 291 298 298 304 309 313 317 320 324 327 329 331 334 337 339 341 343 345 346 347 349 350 350 349 348 348 350 352 355 356 356 355 355 356
270 269 268 267 265 266 269 275 281 285 289 294 293 300 305 308 311 316 319 322 325 328 331 334 336 338 341 343 345 347 348 349 350 350 349 349 350 352 355 357 357 356 356 357
273 270 270 272 271 267 270 274 278 283 288 287 291 296 301 303 307 311 315 319 322 325 328 331 333 336 338 341 343 345 347 348 349 350 349 349 350 352 355 358 358 357 357 358
277 275 273 277 274 270 270 272 277 281 284 286 290 294 298 301 304 308 312 316 319 322 324 327 330 333 336 339 342 344 346 347 349 349 349 349 350 352 355 358 359 358 358 359
277 277 277 278 277 275 273 274 277 280 283 286 289 292 295 298 301 305 309 312 316 319 321 324 328 331 334 337 340 342 344 346 348 349 349 349 350 352 355 357 359 359 359 -0
276 277 279 282 282 280 278 278 279 280 282 285 288 291 293 295 298 302 306 309 313 316 319 322 325 329 332 335 338 341 343 345 347 348 348 348 349 351 354 357 359 360 360 1
274 277 279 285 286 285 284 284 283 283 284 285 287 290 293 295 297 300 304 307 310 313 316 320 323 326 329 332 335 338 341 343 345 347 348 348 348 350 353 356 359 0 0 1
273 274 279 283 283 285 285 284 284 283 284 285 287 289 291 294 297 299 302 305 308 311 314 317 320 323 327 329 333 336 339 341 344 346 347 347 348 349 352 355 359 0 1 1
271 273 277 278 280 282 282 281 280 281 283 285 287 289 292 294 297 299 301 304 306 308 311 314 317 320 323 327 330 333 336 339 342 344 346 346 347 348 351 354 358 0 1 2
272 274 274 275 277 278 278 277 278 280 281 283 285 287 290 292 295 297 299 302 304 306 308 311 313 316 320 323 326 330 333 337 339 342 344 345 345 347 350 353 357 359 1 2
274 275 275 275 275 275 275 276 278 279 280 282 283 285 287 289 291 293 296 298 300 302 304 307 309 312 315 319 322 326 330 334 337 339 342 343 344 346 348 351 355 359 1 2
275 276 276 276 276 277 277 278 278 279 280 281 282 283 284 286 287 289 290 293 295 297 300 302 305 307 310 314 318 322 326 330 334 337 340 342 342 344 346 349 353 358 1 1
274 275 275 276 277 278 278 279 280 281 282 282 283 283 283 285 286 287 288 289 291 293 296 298 300 302 305 308 313 317 321 326 330 333 337 339 340 342 344 348 351 356 0 2
274 275 276 277 278 278 279 280 281 282 283 283 284 284 284 285 286 287 287 288 289 291 292 294 295 297 299 303 307 312 316 321 325 329 334 337 338 340 343 346 350 355 359 2
273 274 275 277 278 280 281 282 283 284 285 285 285 286 286 287 288 288 288 288 288 289 289 290 291 293 294 297 301 306 310 315 320 325 330 334 336 338 340 344 348 353 357 1
276 276 277 279 280 281 283 284 286 287 287 287 287 288 288 289 290 290 288 287 287 288 288 288 288 289 290 293 296 300 305 310 315 321 326 331 334 335 338 342 346 351 356 359
279 278 278 280 282 284 285 287 288 288 289 289 290 290 290 290 290 291 290 289 288 287 287 287 286 286 287 289 292 295 300 305 310 316 322 327 331 333 336 340 344 349 354 359
284 283 283 282 283 284 285 287 289 290 291 291 292 292 292 292 292 292 292 291 290 288 287 286 285 285 285 287 289 291 295 300 305 311 317 323 327 330 333 337 342 347 352 357
287 287 287 288 288 289 288 289 290 291 292 292 292 292 293 293 294 294 294 293 291 289 286 284 284 284 285 285 286 288 291 295 300 306 312 319 324 327 330 335 339 345 350 355
288 290 291 291 291 291 291 291 291 292 293 293 293 293 292 292 291 291 291 292 292 289 287 284 283 283 283 284 285 286 287 290 294 300 307 315 320 324 327 332 337 342 348 353
287 289 290 291 291 291 291 291 292 292 292 292 292 292 291 290 289 289 289 289 288 286 285 283 281 280 280 280 282 283 283 285 289 295 302 311 317 320 324 329 334 340 346 351
287 288 288 289 288 289 290 290 291 291 291 291 291 291 290 290 289 288 288 287 286 285 283 281 278 276 275 276 278 279 279 280 284 290 298 307 313 317 321 326 332 338 343 349
287 288 289 289 289 289 290 291 291 292 292 292 291 291 290 290 289 288 286 285 284 282 280 278 275 273 271 273 275 275 274 276 280 286 293 303 309 314 318 323 329 335 341 347
287 288 288 289 291 292 292 293 293 293 293 293 292 291 290 289 289 288 287 285 283 281 278 275 272 269 267 269 271 271 271 272 275 280 289 299 306 310 315 320 326 332 338 345
287 289 290 291 293 294 294 295 295 295 294 292 291 290 289 289 289 288 286 284 282 279 275 270 268 265 264 265 267 267 266 267 271 276 285 295 302 306 311 317 324 330 336 343
288 290 292 294 296 297 298 299 299 299 297 295 293 291 291 291 290 289 287 285 281 276 270 266 262 260 260 260 262 261 260 261 265 272 282 292 298 303 308 314 321 327 334 341
289 292 294 297 298 300 303 305 305 304 302 300 298 296 294 293 292 290 288 285 280 273 266 260 258 256 255 254 255 254 253 256 260 268 279 288 295 300 305 311 318 325 331 338